Location: Central Falls
(41.8900°N, 71.3929°W)
Time: 06:49:31
(UTC+00:00)

Tiros 1 despin weight - Pass Details

Date: 08 December 2023
Orbit: 581 x 624 km, 48.2° (Epoch: 29 February)

Event Time Altitude Azimuth Distance (km) Brightness Sun altitude
Rises 03:46:09 0° 294° (WNW) 2,798 - -68.0°
Reaches altitude 10° 03:48:30 10° 288° (WNW) 1,898 - -68.3°
Maximum altitude 03:52:36 43° 217° (SW) 821 - -68.6°
Drops below altitude 10° 03:56:44 10° 145° (SE) 1,904 - -69.0°
Sets 03:59:06 0° 139° (SE) 2,809 - -69.2°
